Weather History for Zurich Airport, Switzerland

Change the Weather History Date:

Monday, September 16, 2013

  Actual Average Record
Temperature  
Mean Temperature 52 °F -  
Max Temperature 55 °F 61 °F 77 °F (2011)
Min Temperature 50 °F 44 °F 39 °F (2008)
Degree Days  
Heating Degree Days 12    
Growing Degree Days 2 (Base 50)    
Moisture  
Dew Point 50 °F    
Average Humidity 83    
Maximum Humidity 94    
Minimum Humidity 64    
Precipitation  
Precipitation 0.20 in - - ()
Sea Level Pressure  
Sea Level Pressure 29.79 in    
Wind  
Wind Speed 7 mph ()    
Max Wind Speed 15 mph    
Max Gust Speed 28 mph    
Visibility 6.1 miles    
Events Rain    
Averages and records for this station are not official NWS values.
T = Trace of Precipitation, MM = Missing Value Source: Averaged Metar Reports

Daily Weather History Graph

Daily Weather History Graph

Search for Another Location

Airport:

Trip Planner

Search our weather history database for the weather conditions in past years. The results will help you decide how hot, cold, wet, or windy it might be!

Date:

Astronomy

Sep. 16, 2013 Rise Set
Actual Time 7:04 AM CEST 7:35 PM CEST
Civil Twilight 6:33 AM CEST 8:06 PM CEST
Nautical Twilight 5:57 AM CEST 8:43 PM CEST
Astronomical Twilight 5:18 AM CEST 9:21 PM CEST
Moon 5:42 PM CEST (9/16) 3:20 AM CEST (9/16)
Length of Visible Light 13h 33m
Length of Day
12h 31m
Waxing Gibbous, 88% of the Moon is Illuminated
Sep 16
Waxing Gibbous
Sep 19
Full
Sep 27
Last Quarter
Oct 5
New
Oct 12
First Quarter

Hourly Weather History & Observations

Time (CEST) Temp. Dew Point Humidity Pressure Visibility Wind Dir Wind Speed Gust Speed Precip Events Conditions
12:00 AM 56 °F 54 °F 89% 29.92 in - WSW 9.2 mph - -  
12:20 AM 55.4 °F 53.6 °F 94% 29.92 in 5.6 mi SW 6.9 mph - N/A   Light Drizzle
12:50 AM 55.4 °F 53.6 °F 94% 29.92 in 6.2 mi SW 6.9 mph - N/A   Mostly Cloudy
1:00 AM 56 °F 52 °F 83% 29.91 in - WSW 9.2 mph - -  
1:20 AM 57.2 °F 51.8 °F 82% 29.92 in 6.2 mi WSW 10.4 mph - N/A   Mostly Cloudy
1:50 AM 55.4 °F 48.2 °F 77% 29.92 in 6.2 mi West 10.4 mph - N/A   Mostly Cloudy
2:00 AM 55 °F 48 °F 71% 29.91 in 12 mi West 6.9 mph - -   Partly Cloudy
2:50 AM 55.4 °F 46.4 °F 72% 29.89 in 6.2 mi West 4.6 mph - N/A   Mostly Cloudy
3:00 AM 55 °F 46 °F 64% 29.90 in - West 5.8 mph - -  
3:20 AM 55.4 °F 46.4 °F 72% 29.89 in 6.2 mi West 8.1 mph - N/A   Mostly Cloudy
3:50 AM 55.4 °F 46.4 °F 72% 29.89 in 6.2 mi WSW 5.8 mph - N/A   Mostly Cloudy
4:00 AM 55 °F 47 °F 65% 29.88 in - West 9.2 mph - -  
4:20 AM 55.4 °F 46.4 °F 72% 29.89 in 6.2 mi WSW 10.4 mph - N/A   Mostly Cloudy
4:50 AM 53.6 °F 48.2 °F 82% 29.86 in 6.2 mi South 5.8 mph - N/A   Mostly Cloudy
5:20 AM 53.6 °F 48.2 °F 82% 29.86 in 6.2 mi SSE 6.9 mph - N/A   Mostly Cloudy
5:50 AM 53.6 °F 48.2 °F 82% 29.86 in 6.2 mi SSE 4.6 mph - N/A   Mostly Cloudy
6:00 AM 54 °F 48 °F 75% 29.84 in - South 4.6 mph - -  
6:20 AM 53.6 °F 48.2 °F 82% 29.83 in 6.2 mi South 5.8 mph - N/A   Mostly Cloudy
6:50 AM 53.6 °F 48.2 °F 82% 29.83 in 6.2 mi South 3.5 mph - N/A   Mostly Cloudy
7:00 AM 54 °F 49 °F 77% 29.84 in - WSW 5.8 mph - -  
7:20 AM 53.6 °F 48.2 °F 82% 29.83 in 6.2 mi SSW 4.6 mph - N/A   Mostly Cloudy
7:50 AM 55.4 °F 48.2 °F 77% 29.83 in 6.2 mi SSW 5.8 mph - N/A   Mostly Cloudy
8:00 AM 55 °F 48 °F 70% 29.83 in 16 mi SW 6.9 mph - -   Overcast
8:20 AM 53.6 °F 50.0 °F 88% 29.83 in 6.2 mi SSW 4.6 mph - N/A Rain Light Rain
8:50 AM 53.6 °F 48.2 °F 82% 29.80 in 6.2 mi SSW 5.8 mph - N/A Rain Light Rain
9:00 AM 54 °F 49 °F 77% 29.82 in - SW 4.6 mph - -  
9:20 AM 53.6 °F 48.2 °F 82% 29.83 in 6.2 mi SSW 6.9 mph - N/A Rain Rain
9:50 AM 53.6 °F 48.2 °F 82% 29.80 in 6.2 mi South 3.5 mph - N/A Rain Light Rain
10:00 AM 55 °F 50 °F 77% 29.81 in - SW 4.6 mph - -  
10:20 AM 55.4 °F 50.0 °F 82% 29.80 in 6.2 mi SSW 4.6 mph - N/A Rain Light Rain
10:50 AM 55.4 °F 50.0 °F 82% 29.80 in 6.2 mi SSW 6.9 mph - N/A Rain Light Rain
11:20 AM 53.6 °F 50.0 °F 88% 29.80 in 6.2 mi SSW 8.1 mph - N/A Rain Light Rain
11:50 AM 53.6 °F 50.0 °F 88% 29.80 in 5.0 mi SSW 8.1 mph - N/A Rain Light Rain
12:00 PM 54 °F 50 °F 80% 29.81 in - SW 10.4 mph - -  
12:20 PM 53.6 °F 50.0 °F 88% 29.80 in 5.0 mi SSW 10.4 mph - N/A Rain Light Rain
12:50 PM 53.6 °F 50.0 °F 88% 29.77 in 5.0 mi SSW 8.1 mph - N/A   Mostly Cloudy
1:00 PM 54 °F 50 °F 82% 29.78 in - SW 8.1 mph - -  
1:20 PM 55.4 °F 50.0 °F 82% 29.77 in 5.6 mi SSW 9.2 mph - N/A   Mostly Cloudy
1:50 PM 55.4 °F 50.0 °F 82% 29.77 in 6.2 mi SSW 9.2 mph - N/A   Overcast
2:00 PM 56 °F 50 °F 75% 29.76 in 10 mi SW 9.2 mph - - Rain Light Rain
2:20 PM 55.4 °F 51.8 °F 88% 29.74 in 6.2 mi SW 10.4 mph - N/A   Overcast
2:50 PM 53.6 °F 50.0 °F 88% 29.74 in 1.2 mi SW 11.5 mph - N/A Rain Rain Showers
3:00 PM 53 °F 50 °F 86% 29.75 in - WSW 8.1 mph - -  
3:20 PM 53.6 °F 50.0 °F 88% 29.74 in 4.3 mi SW 6.9 mph - N/A Rain Light Rain Showers
3:50 PM 53.6 °F 50.0 °F 88% 29.71 in 5.0 mi SSW 4.6 mph - N/A Rain Light Rain Showers
4:00 PM 54 °F 51 °F 84% 29.72 in - SW 8.1 mph - -  
4:20 PM 53.6 °F 50.0 °F 88% 29.71 in 4.3 mi SSW 4.6 mph - N/A Rain Light Rain
4:50 PM 53.6 °F 50.0 °F 88% 29.71 in 4.3 mi SSW 6.9 mph - N/A Rain Light Rain
5:20 PM 53.6 °F 51.8 °F 94% 29.68 in 3.7 mi South 8.1 mph - N/A Rain Light Rain
5:50 PM 53.6 °F 51.8 °F 94% 29.68 in 3.7 mi South 8.1 mph - N/A Rain Light Rain
6:00 PM 54 °F 52 °F 90% 29.69 in - SSW 6.9 mph - -  
6:20 PM 53.6 °F 51.8 °F 94% 29.68 in 5.6 mi SSE 6.9 mph - N/A   Light Drizzle
6:50 PM 55.4 °F 51.8 °F 88% 29.68 in 6.2 mi South 6.9 mph - N/A   Mostly Cloudy
7:00 PM 55 °F 52 °F 86% 29.67 in - SSW 4.6 mph - -  
7:20 PM 55.4 °F 51.8 °F 88% 29.65 in 6.2 mi SSE 5.8 mph - N/A   Scattered Clouds
7:50 PM 55.4 °F 51.8 °F 88% 29.65 in 6.2 mi SSE 6.9 mph - N/A   Mostly Cloudy
8:00 PM 56 °F 52 °F 82% 29.65 in 16 mi South 5.8 mph - - Rain Light Rain Showers
8:20 PM 53.6 °F 51.8 °F 94% 29.65 in 3.7 mi WSW 13.8 mph 25.3 mph N/A Rain Light Rain Showers
8:50 PM 51.8 °F 48.2 °F 88% 29.68 in 5.0 mi West 15.0 mph 27.6 mph N/A Rain Light Rain Showers
9:00 PM 51 °F 48 °F 85% 29.70 in - West 8.1 mph - -  
9:20 PM 50.0 °F 48.2 °F 94% 29.71 in 3.7 mi SW 8.1 mph - N/A Rain Rain Showers
9:50 PM 50.0 °F 48.2 °F 94% 29.68 in 3.7 mi West 5.8 mph - N/A Rain Rain Showers
10:20 PM 51.8 °F 48.2 °F 88% 29.71 in 4.3 mi WSW 5.8 mph - N/A Rain Rain Showers
10:50 PM 50.0 °F 46.4 °F 87% 29.71 in 5.0 mi West 10.4 mph - N/A Rain Light Rain Showers
11:20 PM 50.0 °F 46.4 °F 87% 29.71 in 6.2 mi SW 9.2 mph - N/A   Mostly Cloudy
11:50 PM 50.0 °F 46.4 °F 87% 29.74 in 6.2 mi WSW 6.9 mph - N/A   Mostly Cloudy